Theta_e
310 310 310 310 310 310 310 309 309 309 309 309 309 309 309 308 307 309 311 311 312 313 314 313 314 314 315 318 316 315 320 320 319 318 318 317 318 315 314 317 315 316 318 317 312
311 311 310 310 310 310 309 309 309 309 309 310 310 310 309 309 309 313 311 310 312 313 314 315 316 315 318 318 319 320 320 319 318 317 317 317 317 318 316 317 318 316 316 313 311
313 313 312 312 311 311 311 311 310 309 308 308 309 310 310 309 313 311 314 313 312 313 314 313 314 316 317 318 319 319 319 319 316 315 314 316 316 316 317 318 318 318 318 317 313
315 314 314 314 314 314 314 314 313 312 311 310 308 306 309 310 314 309 314 312 312 313 312 313 315 317 318 318 318 319 318 318 317 315 315 316 316 316 316 317 317 318 317 317 315
315 315 315 315 316 316 317 317 316 314 313 312 311 308 308 311 312 311 311 312 312 313 313 315 316 317 317 317 316 318 318 317 317 316 315 316 317 317 317 317 317 316 314 314 316
315 315 315 316 317 318 319 319 317 316 314 313 311 309 309 309 310 310 310 313 313 313 313 314 315 315 315 315 316 315 315 316 315 315 315 315 316 315 315 316 315 315 315 315 314
315 316 316 317 319 320 321 321 319 319 316 312 310 309 309 312 309 310 312 314 314 312 313 311 312 315 315 315 313 313 314 315 314 313 314 313 315 315 315 315 314 314 315 314 313
317 318 319 320 320 321 321 321 319 314 311 309 309 308 311 307 307 308 311 311 312 312 311 310 310 313 313 312 312 313 312 314 314 311 312 314 314 315 315 312 313 314 314 314 314
318 319 320 321 322 323 324 321 315 311 310 308 310 308 311 307 308 308 310 310 309 309 309 309 311 313 312 314 314 314 314 315 314 312 312 314 314 314 313 312 312 313 313 314 314
320 320 321 322 323 323 323 319 310 313 313 312 310 309 309 310 309 308 309 308 309 310 311 312 312 313 312 313 315 316 314 313 313 313 311 312 313 312 312 312 312 312 313 313 313
321 322 323 324 323 323 322 312 318 316 312 317 316 310 309 308 309 307 307 308 309 311 313 312 313 314 314 314 314 312 312 313 313 313 311 312 313 313 312 312 313 313 313 314 313
324 325 324 324 324 323 318 313 310 309 316 312 311 309 308 309 312 308 307 311 311 313 310 311 313 314 312 310 311 312 313 314 314 313 310 312 312 312 312 313 313 313 313 314 313
324 324 323 324 324 320 315 312 309 308 316 317 310 309 309 309 312 312 309 309 311 311 311 314 315 311 311 311 311 313 312 313 314 312 311 311 314 313 314 312 312 312 312 311 310
323 322 322 323 321 320 314 314 309 308 323 321 311 308 306 308 310 305 306 308 310 313 311 312 311 310 310 311 312 314 313 311 311 311 313 311 315 316 316 316 314 313 310 310 311
320 320 320 322 321 321 315 312 308 307 332 315 307 307 307 308 307 307 305 308 311 311 310 314 310 310 311 312 310 312 309 309 310 311 311 313 313 319 313 313 313 311 310 309 307
319 319 320 319 320 319 317 317 311 326 332 320 308 310 310 308 307 307 308 307 306 309 308 310 306 308 310 308 308 308 310 311 309 311 317 318 315 316 315 313 312 310 307 306 305
314 315 317 318 319 319 318 319 325 330 323 320 312 309 310 309 308 308 310 311 317 320 318 317 317 308 306 309 307 309 311 317 322 321 323 311 315 315 314 312 309 307 305 304 302
307 308 311 316 318 319 317 323 326 322 324 321 318 314 323 315 316 313 316 316 316 313 316 319 320 310 307 310 314 311 313 323 328 326 326 320 321 319 313 307 306 306 305 303 301
304 304 306 307 315 317 320 322 321 320 320 322 320 323 322 318 318 319 319 321 317 313 318 318 318 309 305 306 309 310 312 313 315 318 319 319 318 313 309 308 306 305 304 302 299
301 304 307 308 312 315 317 316 316 318 319 320 322 320 321 320 317 315 316 311 311 306 307 316 321 316 309 306 307 310 311 315 313 321 322 318 317 316 311 309 307 305 302 299 298
300 305 304 308 312 314 315 313 312 313 315 317 317 319 318 319 319 318 318 318 317 315 309 313 316 317 313 313 314 309 309 309 313 318 322 322 318 313 311 306 305 301 299 297 296
304 303 307 310 312 313 313 312 311 312 312 315 315 317 317 317 317 316 315 316 314 308 314 313 316 318 315 314 311 310 313 313 316 317 316 317 317 313 306 302 300 297 295 295 294
305 304 307 310 310 312 311 311 311 312 311 312 313 313 312 313 314 312 313 312 312 314 315 313 318 319 319 315 311 313 314 312 314 315 318 320 318 307 303 298 296 295 293 293 293
301 302 304 309 309 309 309 308 309 308 310 310 310 312 312 312 311 312 312 312 311 310 307 310 312 315 316 315 313 316 313 310 311 314 315 316 313 309 307 305 297 295 292 293 292
298 299 301 308 307 309 307 306 307 308 307 308 309 310 310 310 309 309 308 307 306 301 305 308 311 310 309 310 309 309 308 306 306 307 308 308 307 305 303 296 293 290 290 292 292
297 299 297 299 299 303 305 306 305 304 304 304 305 305 303 306 307 307 305 305 304 301 301 300 306 304 303 303 303 304 301 301 301 301 300 300 302 300 293 292 292 291 289 290 290
291 293 296 295 297 300 300 301 301 300 297 298 298 300 299 301 299 298 297 297 299 299 299 299 301 302 303 301 298 299 299 299 299 298 298 297 297 293 292 292 291 290 290 290 290
Wind_Speed
7 7 8 8 8 8 7 7 8 8 8 8 8 9 11 13 14 9 8 7 6 12 11 13 6 5 3 3 1 1 4 6 5 5 2 4 5 4 2 7 5 8 8 4 5
8 8 8 9 10 10 10 10 10 11 11 11 11 11 12 14 13 11 11 8 8 16 15 14 8 7 3 3 3 5 4 6 5 6 5 4 7 7 5 11 15 12 17 11 7
8 9 9 10 10 11 11 11 12 13 13 13 13 12 12 12 6 3 2 7 11 16 13 9 9 6 5 3 6 4 7 8 7 12 7 7 9 5 10 15 18 15 12 8 13
8 9 9 10 11 12 13 14 14 14 15 15 14 12 9 3 6 2 2 7 14 18 12 9 7 6 5 7 5 6 12 11 5 4 4 7 6 9 13 24 23 20 17 14 12
7 8 10 11 13 14 14 16 17 16 16 16 14 11 3 3 8 8 5 8 15 16 12 8 8 6 7 5 4 9 11 10 11 10 10 11 22 16 21 24 25 20 15 18 17
6 7 9 10 12 14 14 17 17 18 18 16 13 8 2 10 6 8 6 10 12 15 11 10 6 5 3 5 8 2 8 13 11 14 11 11 24 6 16 15 19 15 18 16 16
5 6 8 10 12 14 15 18 18 19 17 14 10 4 4 14 5 6 6 8 13 13 6 6 4 6 3 5 3 4 11 15 17 11 9 8 11 17 22 11 16 20 16 12 14
5 6 8 10 12 15 17 19 20 15 11 9 5 6 7 5 6 8 10 4 7 11 6 4 7 1 4 2 3 6 4 10 7 3 2 9 20 20 12 9 13 17 18 16 20
5 6 8 11 14 17 18 19 12 7 8 5 4 3 6 3 2 3 8 5 7 6 4 8 5 2 2 8 9 7 13 15 13 5 3 12 13 14 7 9 20 22 24 23 24
5 7 9 12 15 19 18 16 3 3 3 6 4 2 4 1 1 2 5 10 4 10 5 3 3 6 4 8 12 14 10 11 10 9 10 15 20 21 24 23 26 26 24 21 17
7 8 9 12 15 18 15 4 2 1 1 3 8 6 5 0 2 3 3 6 4 3 8 4 8 13 20 21 21 14 17 21 20 18 15 21 23 19 22 25 27 23 21 16 12
9 10 12 14 13 10 6 4 3 0 8 10 12 9 4 3 4 2 7 6 5 8 5 4 13 17 10 6 11 17 22 22 22 16 7 17 23 25 25 22 22 22 17 12 7
9 9 8 8 8 2 4 3 1 1 4 6 2 2 2 4 4 2 6 4 4 8 11 18 11 2 14 13 14 18 16 21 23 16 14 13 13 3 5 9 15 11 10 5 4
7 4 5 4 2 3 1 2 0 2 4 3 1 1 2 2 3 2 1 1 2 7 8 10 6 7 4 10 15 19 15 16 14 8 9 8 10 12 12 18 12 13 12 14 15
6 5 5 1 1 1 2 1 2 2 6 2 1 0 0 1 2 5 1 0 5 3 3 5 1 2 7 11 6 9 5 4 4 8 8 5 6 7 5 4 7 11 13 16 16
5 3 3 3 4 3 3 2 2 2 6 2 2 2 4 1 2 2 3 3 0 3 4 12 1 4 5 3 5 1 4 7 2 4 9 10 8 2 3 2 9 11 14 17 18
4 4 4 5 0 2 2 2 2 5 3 4 3 3 3 5 4 4 3 3 1 6 8 17 15 3 4 7 2 4 5 5 5 5 7 6 3 7 11 6 12 14 12 13 12
5 4 5 7 6 3 2 2 8 4 6 2 2 3 4 4 6 4 6 11 11 8 9 11 21 7 7 5 3 5 7 4 6 10 16 12 8 7 5 16 13 14 14 15 18
6 4 5 8 10 8 1 7 5 6 6 4 1 8 6 0 4 0 4 11 6 9 9 5 8 2 4 1 2 4 6 8 3 5 6 10 17 7 8 9 12 13 14 14 13
3 3 5 9 15 7 3 11 9 4 2 5 10 6 11 6 4 2 3 2 2 2 4 1 6 6 3 2 7 8 4 7 5 5 9 14 14 10 11 4 7 11 11 11 10
5 2 2 10 18 3 7 9 8 7 9 7 11 12 11 10 8 5 4 2 5 4 5 8 6 9 1 8 17 5 6 6 2 4 4 4 9 2 3 5 7 7 9 11 12
5 3 6 22 4 3 8 5 3 6 3 5 4 9 12 9 9 9 11 10 4 3 5 8 5 11 23 21 8 6 10 13 8 9 10 13 18 12 5 7 5 5 6 7 8
3 2 7 8 6 8 5 5 6 6 9 4 7 6 4 8 6 11 11 3 5 1 1 4 3 7 7 8 3 8 11 13 16 12 19 18 15 6 8 8 6 4 2 2 4
2 3 1 2 2 5 10 8 9 1 7 11 8 6 6 9 9 10 8 2 3 2 4 2 4 9 10 14 11 5 3 6 4 4 8 7 10 14 17 20 5 3 2 2 3
1 2 1 5 8 11 6 4 3 6 2 2 5 7 4 5 3 8 9 4 2 5 2 2 9 15 17 18 15 14 13 16 17 16 9 19 17 21 18 4 2 1 3 6 6
3 2 2 1 1 6 13 10 16 14 8 9 12 12 3 8 9 12 6 7 11 1 0 0 6 6 9 12 13 10 14 20 21 23 23 25 26 12 1 1 4 5 5 6 5
2 1 1 2 4 6 5 6 4 7 2 2 3 2 3 5 1 1 4 5 5 4 2 3 3 6 17 16 12 12 21 20 23 24 23 21 10 3 1 6 9 7 9 10 8
Wind_Direction
12 11 5 3 359 355 348 340 336 332 331 331 332 333 332 328 316 292 247 235 212 193 174 157 145 143 133 120 123 215 232 244 239 206 212 186 238 171 280 264 219 204 244 293 161
5 2 360 357 355 353 346 340 330 322 318 317 320 325 328 327 310 256 260 230 201 187 169 168 167 160 165 161 190 223 236 245 227 226 244 236 242 282 245 252 255 251 243 238 209
4 3 1 359 355 349 346 340 331 323 318 314 312 316 325 332 297 248 185 216 192 184 188 173 151 170 201 196 195 188 242 250 240 243 258 272 261 245 264 270 261 268 281 245 226
356 359 0 359 356 353 346 340 335 324 319 317 315 313 319 331 296 218 220 180 184 184 162 146 158 181 218 216 194 237 243 247 263 225 228 260 294 253 243 260 277 287 280 277 241
352 353 356 356 356 353 348 342 333 322 316 313 313 316 321 221 245 272 253 193 181 181 182 173 181 192 224 220 206 235 254 257 252 257 256 274 267 266 264 263 274 275 268 262 263
349 353 355 354 353 351 347 338 328 320 312 304 301 297 201 259 251 262 235 188 190 184 186 181 224 215 252 234 221 334 273 278 272 257 243 243 269 281 259 264 277 272 267 270 263
349 353 355 353 350 349 344 338 326 318 308 297 284 231 224 255 237 236 206 199 202 192 179 209 156 193 171 257 268 314 294 290 270 256 230 216 260 236 264 277 274 284 284 274 260
341 346 349 349 350 348 345 336 327 326 324 301 231 168 253 253 258 243 227 199 195 199 213 206 188 197 240 347 277 272 248 283 292 170 190 197 273 282 295 274 273 287 288 281 277
325 334 341 347 350 348 345 334 327 348 18 80 122 190 259 296 281 250 204 167 147 138 114 130 155 205 212 249 274 230 268 265 286 242 173 207 277 283 272 285 288 280 278 276 288
306 322 333 341 345 346 345 330 346 18 47 77 94 227 227 308 134 114 162 157 133 136 119 158 154 205 208 217 249 270 259 253 259 286 247 271 267 280 287 290 280 276 277 282 287
293 302 313 325 334 341 347 338 290 187 349 277 271 264 278 224 159 94 138 128 114 188 197 182 209 210 226 227 247 283 272 273 278 279 294 282 291 296 289 279 276 285 278 281 288
282 295 302 308 316 333 352 68 94 311 296 259 258 270 307 344 294 115 158 186 188 220 144 176 236 237 261 263 251 259 268 276 280 275 287 290 297 289 274 276 275 278 286 297 333
266 281 293 307 324 329 74 91 353 150 260 289 233 236 324 187 231 254 198 151 202 197 209 246 267 261 219 240 259 249 264 275 284 307 277 293 281 269 280 268 280 284 285 319 55
229 235 297 323 347 338 52 359 212 168 272 254 172 166 173 136 107 349 46 357 192 276 231 256 299 236 214 241 246 277 263 267 282 299 291 355 295 298 264 274 322 40 63 94 67
270 282 297 292 237 218 188 336 310 244 290 57 110 322 120 23 129 39 24 186 262 255 219 282 229 185 224 241 220 261 0 302 296 276 297 257 260 314 252 271 60 67 90 71 39
219 223 216 255 250 212 203 336 342 221 246 193 171 176 143 77 97 141 87 74 26 275 248 268 231 247 253 188 216 234 297 278 202 264 261 261 216 325 356 122 62 69 68 41 43
204 210 199 183 223 214 201 248 242 227 357 201 212 202 153 158 147 157 132 155 291 319 294 307 286 221 229 247 154 224 305 308 271 221 271 108 284 268 277 354 60 87 59 55 48
212 222 228 205 197 169 127 151 222 196 254 336 209 185 258 189 253 228 275 257 229 217 283 287 301 200 164 228 215 173 176 203 271 283 293 313 255 259 243 90 78 55 48 40 37
244 238 238 234 182 166 188 231 248 209 198 217 224 256 252 229 252 152 234 276 310 202 214 238 251 350 227 181 206 104 208 234 244 273 276 260 261 242 102 85 61 54 42 35 28
172 165 214 214 179 151 211 239 236 245 188 255 264 246 267 259 234 221 269 143 209 200 346 254 269 240 213 193 216 210 206 223 239 246 244 261 264 265 182 74 53 49 31 20 20
145 163 175 167 157 163 217 229 255 255 252 248 255 259 268 280 257 265 251 250 219 199 166 175 219 283 184 229 260 206 213 212 122 225 257 274 274 76 58 111 60 33 18 13 16
154 167 152 160 166 198 219 198 239 267 266 265 287 255 259 280 273 265 255 232 109 138 255 208 244 258 265 271 258 270 252 215 228 232 231 248 249 324 113 111 76 50 22 15 11
160 114 179 189 201 210 228 218 228 206 233 224 241 231 243 263 269 254 258 106 43 0 328 46 282 271 249 246 328 256 261 253 262 273 253 258 256 109 138 134 79 81 61 12 8
145 146 248 219 200 229 226 249 232 188 239 233 237 237 251 257 250 271 278 304 55 57 24 20 210 239 285 298 301 268 312 317 284 281 328 293 311 307 306 309 23 124 282 283 338
204 200 337 186 223 220 218 187 195 211 259 256 227 232 242 231 238 248 276 307 105 19 52 237 260 272 277 283 285 274 274 275 266 274 265 283 278 276 291 337 34 47 279 249 265
162 171 104 112 34 199 214 236 243 244 253 244 253 263 298 247 252 285 299 267 272 45 320 127 271 289 272 275 264 267 271 269 273 271 265 263 268 295 41 312 279 293 306 282 295
147 115 78 129 166 181 208 220 186 162 137 131 134 155 208 254 167 167 241 264 260 247 249 263 267 268 271 283 311 272 249 266 273 272 269 269 300 90 302 300 312 313 316 305 305